RADUGA 23 [-]

Last updated on Oct. 27, 2020, 5:53 a.m. UTC

1 19928U 89030A   20300.58053102 -.00000377  00000-0  00000-0 0  9996
2 19928  14.1035 347.8231 0018928 144.7872 222.9185  1.00322260114207
UTC
Height (km)
Latitude
Longitude
Inclination
Orbital Period
UTC large
Height (km)
Speed (km/s)
/
Latitude / Longitude
Inclination (degrees)
Orbital Period (minutes)
Azimuth
Elevation
Range (km)
Doppler Factor
iOS Compass Heading
iOS Angle

Next 30 passes for location: Hong Kong

Rise time Rise Azimuth (degrees) Set time Set Azimuth (degrees) Duration Max altitude (degrees)

No matching passes for this satellites